Location: Beekmeers
(50.8953°N, 3.6968°E)
Time: 05:00:25
(UTC+00:00)

IDEFIX/ARIANE 42P - Pass Details

Date: 23 May 2024
Orbit: 783 x 799 km, 98.5° (Epoch: 19 June)

Event Time Altitude Azimuth Distance (km) Brightness Sun altitude
Rises 02:56:55 0° 7° (N) 3,318 6.7 -6.6°
Reaches altitude 10° 02:59:33 10° 356° (N) 2,385 5.7 -6.3°
Maximum altitude 03:03:55 27° 300° (WNW) 1,492 3.9 -5.8°
Drops below altitude 10° 03:08:16 10° 244° (WSW) 2,374 4.4 -5.3°
Enters shadow 03:09:20 - 238° (WSW) 2,741 4.7 -5.2°
